Fountain Dale, PA

4:21 AM EDT on April 23, 2017 (GMT -0400)
Fountain Dale

Weather History for KRYT - May, 2013

Change the Weather History Date:

Friday, May 24, 2013

  Actual Average (KHGR) Record (KHGR)
Temperature  
Mean Temperature 55 °F -  
Max Temperature 64 °F 71 °F 87 °F (2004)
Min Temperature 46 °F 52 °F 43 °F (2006)
Degree Days  
Heating Degree Days 10    
Growing Degree Days 5 (Base 50)    
Moisture  
Dew Point 44 °F    
Average Humidity 67    
Maximum Humidity 88    
Minimum Humidity 48    
Precipitation  
Precipitation 0.01 in - - ()
Sea Level Pressure  
Sea Level Pressure 29.92 in    
Wind  
Wind Speed 5 mph (NW)    
Max Wind Speed 16 mph    
Max Gust Speed 29 mph    
Visibility 10 miles    
Events      
Averages and records for this station are not official NWS values.
T = Trace of Precipitation, MM = Missing Value Source: NWS Daily Summary

Daily Weather History Graph

Daily Weather History Graph

Search for Another Location

Airport or City:

Trip Planner

Search our weather history database for the weather conditions in past years. The results will help you decide how hot, cold, wet, or windy it might be!

Date:

Astronomy

May. 24, 2013 Rise Set
Actual Time 5:47 AM EDT 8:25 PM EDT
Civil Twilight 5:16 AM EDT 8:57 PM EDT
Nautical Twilight 4:37 AM EDT 9:36 PM EDT
Astronomical Twilight 3:53 AM EDT 10:20 PM EDT
Moon 8:05 PM EDT (5/24) 5:18 AM EDT (5/24)
Length of Visible Light 15h 40m
Length of Day
14h 37m
Full, 100% of the Moon is Illuminated
May 24
Full
May 25
Full
May 31
Last Quarter
Jun 8
New
Jun 16
First Quarter

Hourly Weather History & Observations

Time (EDT) Temp. Windchill Dew Point Humidity Pressure Visibility Wind Dir Wind Speed Gust Speed Precip Events Conditions
12:53 AM 64.0 °F - 60.1 °F 87% 29.76 in 8.0 mi Calm Calm - 0.01 in   Overcast
1:53 AM 64.0 °F - 60.1 °F 87% 29.73 in 10.0 mi Variable 5.8 mph - 0.00 in   Mostly Cloudy
2:22 AM 64.4 °F - 60.8 °F 88% 29.75 in 8.0 mi Variable 4.6 mph - N/A   Mostly Cloudy
2:53 AM 64.9 °F - 60.1 °F 84% 29.73 in 7.0 mi Variable 3.5 mph - N/A   Overcast
3:21 AM 64.4 °F - 59.0 °F 83% 29.75 in 8.0 mi Calm Calm - N/A   Mostly Cloudy
3:53 AM 64.0 °F - 57.9 °F 80% 29.73 in 9.0 mi Calm Calm - N/A   Mostly Cloudy
4:53 AM 63.0 °F - 57.0 °F 81% 29.73 in 10.0 mi Calm Calm - N/A   Overcast
5:34 AM 60.8 °F - 55.4 °F 82% 29.78 in 9.0 mi Variable 4.6 mph - N/A   Overcast
5:53 AM 59.0 °F - 52.0 °F 78% 29.78 in 9.0 mi WNW 9.2 mph - N/A   Overcast
6:37 AM 57.2 °F - 48.2 °F 72% 29.83 in 10.0 mi Variable 5.8 mph - N/A   Overcast
6:53 AM 55.9 °F - 48.0 °F 75% 29.83 in 10.0 mi West 8.1 mph - N/A   Overcast
7:37 AM 55.4 °F - 44.6 °F 67% 29.87 in 10.0 mi NNW 8.1 mph 23.0 mph N/A   Overcast
7:53 AM 54.0 °F - 44.1 °F 69% 29.87 in 10.0 mi Variable 5.8 mph - N/A   Overcast
8:01 AM 53.6 °F - 44.6 °F 72% 29.89 in 10.0 mi Variable 4.6 mph - N/A   Overcast
8:09 AM 53.6 °F - 44.6 °F 72% 29.90 in 10.0 mi West 8.1 mph - N/A   Overcast
8:53 AM 53.1 °F - 43.0 °F 69% 29.90 in 10.0 mi WNW 9.2 mph 19.6 mph 0.00 in   Overcast
9:11 AM 53.6 °F - 44.6 °F 72% 29.92 in 10.0 mi Variable 6.9 mph - N/A   Overcast
9:23 AM 51.8 °F - 42.8 °F 71% 29.93 in 10.0 mi Variable 4.6 mph - N/A   Overcast
9:53 AM 52.0 °F - 41.0 °F 66% 29.92 in 10.0 mi Variable 5.8 mph - N/A   Overcast
10:53 AM 52.0 °F - 39.0 °F 61% 29.95 in 10.0 mi NNE 11.5 mph 19.6 mph N/A   Mostly Cloudy
11:16 AM 53.6 °F - 39.2 °F 58% 29.96 in 10.0 mi North 16.1 mph 28.8 mph N/A   Overcast
11:53 AM 52.0 °F - 37.9 °F 59% 29.97 in 10.0 mi North 8.1 mph 20.7 mph N/A   Overcast
12:19 PM 53.6 °F - 39.2 °F 58% 29.98 in 10.0 mi NW 8.1 mph 17.3 mph N/A   Overcast
12:53 PM 53.1 °F - 37.9 °F 57% 29.97 in 10.0 mi North 8.1 mph 18.4 mph N/A   Overcast
1:53 PM 54.0 °F - 39.0 °F 57% 29.99 in 10.0 mi NNW 8.1 mph 20.7 mph N/A   Overcast
2:53 PM 55.0 °F - 39.0 °F 55% 29.99 in 10.0 mi Variable 5.8 mph - N/A   Overcast
3:53 PM 54.0 °F - 37.9 °F 55% 30.00 in 10.0 mi NNW 8.1 mph - N/A   Overcast
4:53 PM 53.1 °F - 37.9 °F 57% 30.02 in 10.0 mi NW 8.1 mph 23.0 mph N/A   Overcast
5:53 PM 52.0 °F - 36.0 °F 54% 30.04 in 10.0 mi WNW 9.2 mph - N/A   Overcast
6:53 PM 51.1 °F - 35.1 °F 54% 30.07 in 10.0 mi Variable 4.6 mph - N/A   Overcast
7:53 PM 50.0 °F - 32.0 °F 50% 30.09 in 10.0 mi NNW 11.5 mph 23.0 mph N/A   Overcast
8:53 PM 48.0 °F - 30.9 °F 52% 30.13 in 10.0 mi NW 9.2 mph 16.1 mph N/A   Mostly Cloudy
9:53 PM 48.0 °F - 28.9 °F 48% 30.15 in 10.0 mi Variable 5.8 mph - N/A   Mostly Cloudy
10:53 PM 46.9 °F - 28.9 °F 50% 30.17 in 10.0 mi Variable 4.6 mph - N/A   Clear
11:53 PM 46.0 °F 42.5 °F 28.9 °F 51% 30.15 in 10.0 mi Variable 6.9 mph - N/A   Clear